Weather History for Winner, SD

Change the Weather History Date:

Monday, October 21, 2013

  Actual Average Record
Temperature  
Mean Temperature 41 °F 49 °F  
Max Temperature 49 °F 60 °F 74 °F (2010)
Min Temperature 33 °F 37 °F 33 °F (2013)
Degree Days  
Heating Degree Days 24 17  
Month to date heating degree days 306 268  
Since 1 July heating degree days 361 410  
Cooling Degree Days 0 0  
Month to date cooling degree days 2 9  
Year to date cooling degree days 1014 915  
Moisture  
Dew Point 35 °F    
Average Humidity 73    
Maximum Humidity 92    
Minimum Humidity 54    
Precipitation  
Precipitation 0.02 in 0.05 in 0.20 in (2007)
Month to date precipitation 3.95 1.20  
Year to date precipitation 20.68 20.19  
Sea Level Pressure  
Sea Level Pressure 30.01 in    
Wind  
Wind Speed 5 mph (West)    
Max Wind Speed 15 mph    
Max Gust Speed 18 mph    
Visibility 10 miles    
Events Rain    
T = Trace of Precipitation, MM = Missing Value Source: NWS Daily Summary

Daily Weather History Graph

Daily Weather History Graph

Search for Another Location

Airport:

Trip Planner

Search our weather history database for the weather conditions in past years. The results will help you decide how hot, cold, wet, or windy it might be!

Date:

Astronomy

Oct. 21, 2013 Rise Set
Actual Time 8:01 AM CDT 6:46 PM CDT
Civil Twilight 7:31 AM CDT 7:15 PM CDT
Nautical Twilight 6:58 AM CDT 7:48 PM CDT
Astronomical Twilight 6:25 AM CDT 8:21 PM CDT
Moon 8:36 PM CDT (10/21) 10:41 AM CDT (10/21)
Length of Visible Light 11h 43m
Length of Day
10h 45m
Waning Gibbous, 92% of the Moon is Illuminated
Oct 21
Waning Gibbous
Oct 26
Last Quarter
Nov 3
New
Nov 9
First Quarter
Nov 17
Full

Hourly Weather History & Observations

Time (CDT) Temp. Windchill Dew Point Humidity Pressure Visibility Wind Dir Wind Speed Gust Speed Precip Events Conditions
12:53 AM 33.1 °F 27.7 °F 30.0 °F 89% 30.09 in 10.0 mi WSW 5.8 mph - N/A   Overcast
1:53 AM 36.0 °F 31.1 °F 32.0 °F 86% 30.09 in 10.0 mi WSW 5.8 mph - N/A   Overcast
2:53 AM 36.0 °F 32.1 °F 32.0 °F 86% 30.08 in 10.0 mi WSW 4.6 mph - N/A   Overcast
3:53 AM 36.0 °F 32.1 °F 33.1 °F 89% 30.09 in 10.0 mi West 4.6 mph - N/A   Overcast
4:53 AM 36.0 °F 33.3 °F 33.1 °F 89% 30.08 in 10.0 mi WSW 3.5 mph - N/A   Overcast
5:53 AM 37.0 °F 33.3 °F 32.0 °F 82% 30.08 in 10.0 mi WSW 4.6 mph - N/A   Overcast
6:53 AM 36.0 °F 32.1 °F 30.9 °F 82% 30.07 in 10.0 mi SW 4.6 mph - N/A   Partly Cloudy
7:53 AM 34.0 °F 28.8 °F 28.9 °F 82% 30.08 in 10.0 mi SW 5.8 mph - N/A   Mostly Cloudy
8:53 AM 34.0 °F 28.0 °F 30.0 °F 85% 30.09 in 10.0 mi WSW 6.9 mph - N/A   Clear
9:53 AM 41.0 °F 35.2 °F 34.0 °F 76% 30.07 in 10.0 mi West 9.2 mph - N/A   Partly Cloudy
10:53 AM 45.0 °F 39.3 °F 34.0 °F 65% 30.06 in 10.0 mi WNW 11.5 mph - N/A   Mostly Cloudy
11:53 AM 48.0 °F - 32.0 °F 54% 30.04 in 10.0 mi WNW 10.4 mph - N/A   Overcast
12:53 PM 48.0 °F - 34.0 °F 58% 30.03 in 10.0 mi WNW 8.1 mph - 0.00 in   Overcast
1:53 PM 46.9 °F - 34.0 °F 61% 30.00 in 10.0 mi Variable 4.6 mph - 0.00 in   Overcast
2:53 PM 48.0 °F - 33.1 °F 56% 29.97 in 10.0 mi Calm Calm - 0.00 in   Overcast
3:53 PM 46.9 °F - 37.0 °F 68% 29.97 in 10.0 mi NE 3.5 mph - 0.00 in Rain Light Rain
4:53 PM 46.9 °F - 36.0 °F 66% 29.96 in 10.0 mi Calm Calm - 0.00 in   Overcast
5:53 PM 48.0 °F - 37.0 °F 66% 29.96 in 10.0 mi Calm Calm - N/A   Overcast
6:53 PM 44.1 °F 42.5 °F 37.9 °F 79% 29.96 in 10.0 mi ESE 3.5 mph - N/A   Clear
7:53 PM 43.0 °F 40.3 °F 37.9 °F 82% 29.96 in 10.0 mi SE 4.6 mph - N/A   Mostly Cloudy
8:53 PM 43.0 °F 41.3 °F 39.0 °F 86% 29.94 in 10.0 mi SSE 3.5 mph - 0.00 in Rain Light Rain
9:53 PM 46.0 °F - 43.0 °F 89% 29.93 in 10.0 mi Calm Calm - 0.02 in Rain Light Rain
10:09 PM 44.6 °F - 42.8 °F 93% 29.90 in 10.0 mi Calm Calm - 0.00 in Rain Light Rain
10:53 PM 45.0 °F 42.6 °F 42.1 °F 90% 29.93 in 10.0 mi NW 4.6 mph - 0.00 in   Mostly Cloudy
11:02 PM 42.8 °F 41.1 °F 41.0 °F 93% 29.90 in 10.0 mi North 3.5 mph - N/A   Mostly Cloudy
11:53 PM 42.1 °F 37.7 °F 39.9 °F 92% 29.93 in 10.0 mi WNW 6.9 mph - N/A   Mostly Cloudy